Regional Weather Roundup
Issued by NWS

Home | Current Version | Previous Version | Text Only | Print | Product List | Glossary On
Versions: 1 2 3 4 5 6 7 8 9 10 11 12 13 14 15 16 17 18 19 20 21 22 23 24 25 26 27 28 29 30 31 32 33 34 35 36 37 38 39 40 41 42 43 44 45 46 47 48 49 50
000
ASUS44 KOUN 071310
RWROK

WEATHER ROUNDUP FOR OKLAHOMA
NATIONAL WEATHER SERVICE NORMAN OK
700 AM CST WED DEC 07 2016

NOTE: "FAIR" INDICATES FEW OR NO CLOUDS BELOW 12,000 FEET WITH NO
      SIGNIFICANT WEATHER AND/OR OBSTRUCTIONS TO VISIBILITY.

OKZ001>007-009>012-014-015-017-071400-
NORTHWEST OKLAHOMA AND THE PANHANDLE

CITY           SKY/WX    TMP DP  RH WIND       PRES   REMARKS
GAGE           CLOUDY    29  20  69 E7        30.07R WCI  22
GUYMON         CLOUDY    21  16  81 E6        30.00R WCI  13
ENID/WOODRING  CLOUDY    34  21  60 NE7       30.12R WCI  28
$$

OKZ016-021>023-033>039-044-045-071400-
SOUTHWEST OKLAHOMA

CITY           SKY/WX    TMP DP  RH WIND       PRES   REMARKS
LAWTON/REGL    CLOUDY    31  23  72 NE5       30.08R WCI  26
LAWTON/FT SILL CLOUDY    30  24  75 N7        30.06R WCI  24
FREDERICK      CLOUDY    30  25  81 NE8       30.04R WCI  22
CLINTON        CLOUDY    30  23  75 E7        30.07R WCI  23
HOBART         CLOUDY    29  24  82 NE8       30.07R WCI  21
ALTUS AFB      CLOUDY    26  23  89 NE6       30.06S WCI  19
$$

OKZ018>020-024>031-071400-
CENTRAL OKLAHOMA

CITY           SKY/WX    TMP DP  RH WIND       PRES   REMARKS
OKLAHOMA CITY  CLOUDY    33  19  56 NE9       30.08R WCI  25
OKC/WILEY POST CLOUDY    33  19  56 NE12      30.09S WCI  24
OKC/TINKER AFB CLOUDY    33  20  58 E6        30.07R WCI  27
STILLWATER     CLOUDY    34  18  52 NE12      30.12R WCI  25
$$

OKZ008-013-054>072-071400-
NORTHEAST OKLAHOMA

CITY           SKY/WX    TMP DP  RH WIND       PRES   REMARKS
TULSA          CLOUDY    36  18  48 NE7       30.15R WCI  30
TULSA/JONES    CLOUDY    37  17  44 E9        30.15R WCI  30
PONCA CITY     CLOUDY    35  17  47 E12       30.14R WCI  27
BARTLESVILLE   CLOUDY    35  17  47 NE9       30.19R WCI  28
MUSKOGEE       CLOUDY    38  24  57 NE10      30.14R WCI  31
$$

OKZ032-040>043-046>053-073>077-071400-
SOUTH CENTRAL/SOUTHEAST OKLAHOMA

CITY           SKY/WX    TMP DP  RH WIND       PRES   REMARKS
ARDMORE/DWNTWN CLOUDY    32  28  86 CALM      30.07S
MCALESTER      CLOUDY    40  31  70 CALM      30.10R
$$




USA.gov is the U.S. government's official web portal to all federal, state and local government web resources and services.